Flag for Brazil Weather past 2 weeks in Fortaleza, Ceará, Brazil

Now
77 °F

Passing clouds.


Feels Like: 78 °F
Forecast: 79 / 88 °F
Wind: 6 mph from South

Location: Fortaleza Aeropor-To

Current Time: May 30, 2015 at 6:19:14 AM

Latest Report: May 30, 2015 at 6:00 AM


Visibility: N/A

Pressure: 29.86 "Hg

Humidity: 83%

Dew point: 72 °F

Location of FortalezaLocation

Historic Weather in Fortaleza — Graph

°F

Fortaleza temperature yesterday

Maximum temperature yesterday: 86 °F (at 11:00 AM)
Minimum temperature yesterday: 79 °F (at 5:00 AM)
Average temperature yesterday: 81 °F

Past Weeks' High & Low Weather Summary

 TemperatureHumidityPressure
High90 °F (May 16, 12:00 PM)89% (May 22, 6:00 AM)30.01 "Hg (May 22, 6:00 AM)
Low75 °F (May 15, 6:00 AM)43% (May 16, 1:00 PM)29.80 "Hg (May 29, 3:00 PM)
Average82 °F71%29.90 "Hg
* Reported May 15 5:00 AM — May 30 5:00 AM, Fortaleza, Weather by CustomWeather, © 2015

Note: Actual official high and low records may vary slightly from our data, if they occured in-between our weather recording intervals... More about our weather records

Advertising

Fortaleza weather history for previous 24 hours

 ConditionsComfort  
Time TempWeatherWind HumidityBarometerVisibility
5:00 AM
Sat, May 30
77 °FPassing clouds.6 mph83%29.83 "HgN/A
4:00 AM77 °FPassing clouds.6 mph83%29.83 "HgN/A
3:00 AM77 °FPassing clouds.6 mph83%29.83 "HgN/A
2:00 AM77 °FPassing clouds.6 mph83%29.83 "HgN/A
1:00 AM79 °FPassing clouds.5 mph79%29.83 "HgN/A
12:00 AM81 °FPassing clouds.9 mph74%29.83 "HgN/A
11:00 PM
Fri, May 29
79 °FPassing clouds.8 mph79%29.86 "HgN/A
10:00 PM79 °FPassing clouds.7 mph79%29.86 "HgN/A
9:00 PM79 °FPassing clouds.6 mph79%29.86 "HgN/A
8:00 PM81 °FClear.7 mph74%29.86 "Hg10 mi
7:00 PM81 °FClear.7 mph74%29.86 "Hg10 mi
6:00 PM81 °FClear.8 mph74%29.83 "Hg10 mi
5:00 PM82 °FPassing clouds.12 mph70%29.83 "HgN/A
4:00 PM82 °FScattered clouds.16 mph70%29.83 "HgN/A
3:00 PM84 °FScattered clouds.15 mph66%29.80 "HgN/A
2:00 PM84 °FScattered clouds.17 mph66%29.83 "HgN/A
1:00 PM84 °FScattered clouds.16 mph62%29.83 "HgN/A
12:00 PM84 °FScattered clouds.16 mph66%29.86 "HgN/A
11:00 AM86 °FScattered clouds.18 mph62%29.89 "HgN/A
10:00 AM84 °FScattered clouds.16 mph66%29.89 "HgN/A
9:00 AM82 °FPartly sunny.18 mph66%29.92 "HgN/A
8:00 AM81 °FScattered clouds.10 mph74%29.89 "HgN/A
7:00 AM81 °FPassing clouds.8 mph79%29.89 "HgN/A
6:00 AM79 °FScattered clouds.7 mph74%29.86 "HgN/A
Weather by CustomWeather, © 2015

See weather overviewHow to use our weather pages